Volver al catálogo

SL-16 DEB

ActivoLEO
NORAD 39862·DEBRIS·🇷🇺 Russia

Lanzado Dec 25, 1992 desde Baikonur Cosmodrome

Loading…

Próximos Pases (próximas 24 horas)

TLE

ObsoletoSource: Space-Track

Época: Sep 5, 2026, 11:47 UTC

1 39862U 92093LQ  26248.49127979  .00002043  00000-0  33458-3 0  9996
2 39862  70.8284 187.8198 0066484 298.1592  61.2852 14.70701793640367

Sigue SL-16 DEB en tiempo real con AllMySat

Download on the App Store